Location: CNYAC Observatory
(43.2150°N, 74.9500°W)
Time: 02:30:05
(UTC-04:00)

Daily predictions for brighter satellites

Satellite Brightness Start Highest point End
(mag) Time Altitude Azimuth Time Altitude Azimuth Time Altitude Azimuth
Terra 4.2 00:06:58 17° WNW 00:06:58 17° WNW 00:08:42 10° NW
Cosmos 2219 Rocket 4.3 00:23:50 18° NE 00:23:50 18° NE 00:25:24 10° NE
Cosmos 2263 Rocket 4.2 00:21:24 10° NW 00:23:33 19° WNW 00:23:33 19° WNW
Cosmos 2322 Rocket 4.4 00:29:50 17° WNW 00:31:25 19° NW 00:35:22 10° N
Cosmos 2333 Rocket 4.2 00:39:46 21° NE 00:39:46 21° NE 00:41:46 10° NE
Cosmos 2237 Rocket 4.3 00:41:33 19° NE 00:41:33 19° NE 00:43:18 10° NE
COSMOS 2428 4.2 00:55:04 34° N 00:55:04 34° N 00:58:19 10° NNE
ATLAS CENTAUR R/B 4.4 00:55:09 58° WSW 00:57:56 81° NW 01:26:34 10° NE
ATLAS 3B R/B 3.6 01:08:52 46° ENE 01:08:52 46° ENE 01:14:02 10° NE
Cosmos 2278 Rocket 3.7 01:06:29 10° NNW 01:09:23 31° NNW 01:09:23 31° NNW
CZ-2C R/B 4.1 01:34:53 10° N 01:38:09 35° NNW 01:38:09 35° NNW
Lacrosse 4 Rocket 4.4 01:46:01 13° NNW 01:46:01 13° NNW 01:47:10 10° N
CZ-4C R/B 4.0 01:48:42 25° ENE 01:48:42 25° ENE 01:51:28 10° NE
USA 238 DEB 4.2 02:01:31 55° ENE 02:01:31 55° ENE 02:07:07 10° NE
USA 238 4.2 02:01:38 55° ENE 02:01:38 55° ENE 02:07:12 10° NE
Cosmos 2219 Rocket 3.7 02:05:32 29° NNW 02:05:32 29° NNW 02:09:14 10° N
ATLAS CENTAUR R/B 4.1 02:06:47 10° N 02:09:54 18° NE 02:09:58 18° NE
SL-16 R/B 3.1 02:19:06 46° NNE 02:19:06 46° NNE 02:23:03 10° NNE
COSMOS 2455 3.9 02:19:04 37° NNW 02:19:04 37° NNW 02:23:53 10° NNE
Cosmos 2333 Rocket 3.6 02:21:46 30° NW 02:21:46 30° NW 02:25:55 10° N
Cosmos 2237 Rocket 3.5 02:23:22 32° NNW 02:23:22 32° NNW 02:27:24 10° N
NOSS 3-2 (C) 4.5 02:33:31 36° E 02:33:31 36° E 02:38:45 10° NE
BREEZE-M DEB (TANK) 4.0 02:40:47 73° SSE 02:40:53 73° SE 02:45:21 10° ENE
Cosmos 1607 4.2 02:50:26 59° NNW 02:50:26 59° NNW 02:56:01 10° NNE
ATLAS 5 CENTAUR R/B 4.1 02:51:54 15° ESE 02:51:54 15° ESE 02:54:24 10° ENE
ATLAS 3B R/B 3.8 02:56:06 33° WNW 02:57:52 37° NW 03:04:38 10° NNE
Cosmos 1603 3.9 03:00:41 70° NNE 03:00:41 70° NNE 03:05:45 10° NNE
In-Cosmos 22 Rocket 4.5 02:59:33 10° N 03:04:48 57° ENE 03:04:53 57° E
IRS-1C 4.3 02:59:39 10° NNE 03:04:28 67° ENE 03:04:28 67° ENE
Meteor 2-3 Rocket 4.0 03:13:01 10° N 03:18:47 66° ENE 03:20:01 52° SE
Cosmos 1892 4.5 03:16:14 10° NNE 03:19:26 29° ENE 03:19:26 29° ENE
CZ-2D R/B 2.9 03:17:55 10° NNE 03:22:57 43° E 03:23:57 38° SE
Okean O Rocket 4.3 03:21:40 10° ENE 03:23:54 14° E 03:26:07 10° ESE
CZ-3A R/B 4.1 03:21:47 24° WNW 03:24:50 34° NNW 03:28:47 10° NE
Cosmos 1726 3.8 03:30:25 30° N 03:30:25 30° N 03:32:25 10° N
Cosmos 1943 3.2 03:29:24 63° SE 03:29:56 68° ESE 03:35:34 10° NNE
Spot 4 Rocket 3.9 03:24:45 10° NNE 03:29:55 87° E 03:29:55 87° E
IRS-1D 3.8 03:24:49 10° NNE 03:29:59 60° E 03:30:40 55° SE
CZ-4C R/B 3.0 03:33:52 37° WNW 03:34:33 39° NW 03:40:18 10° NNE
Cosmos 1300 4.3 03:40:07 28° NNW 03:40:07 28° NNW 03:42:09 10° N
Cosmos 1331 Rocket 3.8 03:33:33 10° NNW 03:38:47 81° W 03:38:47 81° W
ADEOS 3.5 03:33:58 10° N 03:39:11 71° WNW 03:39:13 71° WNW
ARIANE 5 R/B 2.5 03:34:29 10° NNE 03:39:46 79° ESE 03:40:24 68° SSE
Cosmos 2369 Rocket 2.0 03:34:21 10° NNW 03:40:00 88° WSW 03:41:29 51° SSE
NPP 4.3 03:36:03 10° N 03:40:49 39° WNW 03:40:49 39° WNW
USA 234 3.2 03:39:30 10° NE 03:46:05 79° SE 03:47:57 50° SW
ATLAS CENTAUR R/B 3.6 03:45:09 10° NW 03:46:10 16° NW 03:46:10 16° NW
S3M 4.4 03:49:07 42° W 03:49:31 43° WNW 03:55:31 10° N
SeaSat 1 3.6 03:45:03 10° SE 03:49:41 44° NE 03:54:22 10° NNW
Cosmos 1455 3.0 03:51:10 46° ESE 03:51:26 48° E 03:55:13 10° NNE
ERBS 4.5 03:52:59 21° NNW 03:52:59 21° NNW 03:55:24 10° NNE
SL-16 R/B 2.4 03:52:07 41° S 03:54:24 74° WSW 04:00:37 10° NNW
Resurs 1-4 Rocket 2.0 03:52:03 10° NNE 03:57:21 89° E 03:58:42 52° SSW
Cosmos 2242 Rocket 3.5 03:59:17 75° SW 03:59:39 83° W 04:04:15 10° N
Cosmos 1271 Rocket 4.5 04:02:18 23° NW 04:02:18 23° NW 04:04:34 10° NNW
SL-16 R/B 4.1 04:00:59 14° WNW 04:02:23 15° NW 04:05:42 10° N
Cosmos 1943 Rocket 2.6 03:57:24 10° NNW 04:03:04 63° ENE 04:08:39 10° SE
Cosmos 1862 Rocket 4.1 04:03:46 34° SSE 04:05:23 54° E 04:09:41 10° NNE
NOSS 3-2 (A) 4.0 04:04:36 36° W 04:06:36 47° NW 04:13:07 10° NNE
Cosmos 1709 Rocket 4.0 04:07:38 10° NNW 04:13:56 66° W 04:17:24 28° SSW
Cosmos 2263 4.1 04:08:13 10° NNW 04:13:58 66° WSW 04:19:41 10° SSE
Cosmos 2251 Rocket 4.1 04:15:49 37° W 04:16:44 40° WNW 04:21:41 10° N
ERS-2 3.4 04:15:20 10° N 04:17:59 28° NW 04:17:59 28° NW
Cosmos 1408 4.3 04:16:23 10° N 04:19:49 33° ENE 04:23:15 10° SE
CENTAUR R/B 2.9 04:19:17 25° S 04:22:50 59° ESE 04:29:32 10° NE
NOSS 3-2 (C) 4.1 04:20:58 31° W 04:23:34 46° NW 04:30:05 10° NNE
Cosmos 1825 3.4 04:23:33 10° N 04:27:11 42° ENE 04:30:48 10° SSE
UNK 4.4 04:28:05 34° W 04:28:05 34° W 04:32:02 10° NNW
BREEZE-M DEB (TANK) 2.2 04:28:26 59° ENE 04:28:26 59° ENE 04:30:34 10° ESE
SL-27 R/B 3.3 04:26:50 28° SSE 04:28:22 48° ESE 04:31:54 10° NNE
MOZ.5/SAFIR/RUBIN 5/SL-8 3.9 04:24:22 10° SSE 04:28:59 77° ENE 04:33:38 10° N
Cosmos 1733 Rocket 3.0 04:25:58 10° NNW 04:30:18 63° W 04:32:11 32° SSW
IRS-1C Rocket 4.3 04:25:40 10° NNE 04:30:57 70° ESE 04:35:13 16° S
Abrixas rocket 3.7 04:31:10 21° NW 04:32:50 34° N 04:35:56 10° ENE
ARGOS Delta rocket 3.5 04:28:28 10° N 04:32:54 90° W 04:35:21 26° SSW
Cosmos 1656 Rocket 4.4 04:29:09 10° NNW 04:34:28 53° ENE 04:39:45 10° SE
ATLAS 5 CENTAUR R/B 1.9 04:33:28 36° SW 04:35:29 73° NW 04:40:46 10° NNE
Cosmos 2074 Rocket 4.0 04:29:55 10° N 04:36:10 83° E 04:42:25 10° S
Cosmos 2327 Rocket 4.5 04:32:14 10° N 04:38:22 84° E 04:44:33 10° S
Cosmos 2184 Rocket 4.1 04:33:46 10° N 04:40:12 86° E 04:46:34 10° S
Cosmos 1862 3.5 04:36:43 10° N 04:40:41 70° E 04:44:38 10° SSE
EO 1 Del DPAF 4.1 04:43:01 32° W 04:43:01 32° W 04:46:21 10° NNW
UNKNOWN OBJECT B 3.3 04:40:12 10° N 04:43:38 37° WNW 04:44:16 34° W
MTI 4.4 04:45:27 38° W 04:45:27 38° W 04:48:32 10° NNW
PSLV R/B 3.4 04:47:17 41° WSW 04:48:12 58° S 04:51:34 10° ESE
Cosmos 1869 3.7 04:50:13 31° WSW 04:51:34 42° WNW 04:55:21 10° N
Cosmos 1892 4.4 04:52:31 10° NW 04:54:28 17° WNW 04:54:28 17° WNW
CZ-4B R/B 2.6 04:52:29 10° NNE 04:56:08 84° E 04:59:29 13° SSW
Cosmos 1933 3.3 04:55:33 15° SSW 04:58:56 77° W 05:03:04 10° N
Cosmos 1908 Rocket 3.5 04:54:40 10° NNW 04:59:02 69° W 05:03:21 10° S
Pageos (A) 4.0 04:57:04 10° NNW 04:58:25 28° NW 04:58:25 28° NW
Okean O Rocket 1.7 04:56:15 10° N 05:00:40 60° WNW 05:04:08 16° SSW
BREEZE-M DEB (TANK) 4.2 04:59:15 19° S 05:00:42 34° SE 05:04:54 10° ENE
CZ-2D R/B 4.2 04:56:49 10° N 05:00:53 37° WNW 05:03:05 22° WSW
CZ-2D R/B 3.2 04:58:30 10° N 05:02:47 26° WNW 05:05:16 18° WSW
Cosmos 2221 Rocket 3.7 04:58:58 10° S 05:03:24 81° E 05:07:50 10° N
Okean-O 3.5 05:01:26 10° NNE 05:05:47 50° E 05:10:05 10° S
SL-08 ROCKET BODY 4.4 05:00:01 10° NNW 05:05:59 65° W 05:12:00 10° S
Cosmos 407 Rocket 4.4 05:02:30 10° S 05:07:30 50° ESE 05:12:35 10° NNE
Atlas Centaur 2 4.0 05:08:53 10° S 05:10:33 12° SSE 05:12:20 10° SE
Cosmos 2285 Rocket 4.0 05:04:19 10° NNW 05:10:42 67° WSW 05:17:01 10° S
COSMOS 2406 3.2 05:08:57 12° SSW 05:14:22 75° WNW 05:20:10 10° NNE
Sich 1 Rocket 4.2 05:12:25 10° NNW 05:16:26 35° W 05:20:26 10° SSW
Cosmos 1703 Rocket 3.6 05:13:18 10° SSW 05:17:44 64° W 05:22:13 10° N
ARIANE 5 R/B 4.4 05:15:15 10° NNW 05:18:13 15° WNW 05:20:44 11° W
Cosmos 389 Rocket 3.7 05:17:30 18° WSW 05:19:00 24° WNW 05:21:55 10° NNW
Cosmos 2369 Rocket 3.9 05:21:10 10° WNW 05:23:07 12° W 05:23:07 12° W
CZ-4C R/B 4.5 05:21:52 10° NW 05:25:03 14° NNW 05:28:27 10° NNE
CZ-4B DEB 4.3 05:20:11 10° N 05:25:33 57° WNW 05:30:52 10° SSW
CZ-4B R/B 3.4 05:21:55 10° N 05:27:03 50° WNW 05:32:07 10° SW
SeaSat 1 3.3 05:23:13 10° SSW 05:27:20 27° WSW 05:31:30 10° NW
Cosmos 1455 4.2 05:26:13 11° W 05:27:29 13° WNW 05:29:19 10° NW
Meteor PRIRODA 4.1 05:23:56 10° NNE 05:27:41 66° ESE 05:31:25 10° S
USA 234 4.1 05:22:45 10° NE 05:28:47 41° NNW 05:34:47 10° W
Geosat 4.0 05:27:22 10° NNE 05:32:26 89° WNW 05:37:28 10° SSW
USA 129 1.9 05:35:23 21° W 05:35:23 21° W 05:36:23 10° NW
Resurs 1-4 Rocket 4.0 05:33:54 10° NNW 05:36:27 14° WNW 05:38:59 10° W
PSLV R/B 3.6 05:32:52 10° N 05:37:13 67° WNW 05:41:34 10° SSW
SL-16 R/B 4.2 05:38:02 10° W 05:39:03 10° W 05:40:05 10° WNW
USA 116 4.3 05:34:23 10° S 05:39:08 69° W 05:44:21 10° NNW
COSMOS 2487 2.5 05:37:24 10° SSW 05:41:01 84° WNW 05:44:38 10° NNE
Meteor 2-10 Rocket 4.1 05:40:11 10° S 05:45:59 75° E 05:51:41 10° NNE
Cosmos 1943 Rocket 3.4 05:42:20 10° NW 05:46:14 19° W 05:50:07 10° SW
Cosmos 2082 Rocket 4.4 05:43:13 10° SSE 05:47:55 27° ESE 05:52:39 10° NE
Meteor 2-13 Rocket 4.4 05:42:38 10° N 05:48:43 80° W 05:54:44 10° S
MOS 1 Rocket 3.7 05:46:14 10° NNE 05:50:30 62° E 05:54:45 10° S
ADEOS II 2.1 05:46:21 10° N 05:51:34 66° WNW 05:56:45 10° SSW
